CZ-6A DEB

Satellite information

Favourite Embed

Satellite Type and Status

DEBRISIN ORBIT

Key statistics

Satellite CZ-6A DEB at a glance.

Uptime

1033

Days in orbit

Revolutions

≈ 14.1

Per day

Orbit

SSO

Sun Synchronous Orbit

Inclination

98.8

Latest

Satellite identification and parameters

Extended collection of information and parameters for CZ-6A DEB.

Object identification

Identified? True

Debris? True

Object name: CZ-6A DEB

International designator: 2022-151UW

Object number (NORAD): 55006

Object ID (CCSDS): 55006

Country: PEOPLES REPUBLIC OF CHINA (PRC)

Current information (Y/N): Y

RCS size: SMALL

Orbital parameters

Period: 101.799 minutes

Inclination: 98.8177 deg

SMA: 7221.99 km

Apoapsis: 875.637 km

Periapsis: 812.073 km

RAAN: 253.5388 deg

Eccentricy: 0.00440072

Argument of periapsis: 51.9126 deg

Mean anomaly: 308.6004 deg

Mean motion: 14.14547196 rev/day

Mean motion (dot): 0.00001869 rev/day2

B* drag term: 0.0009871618 1/REarth

Two-line elements (TLE)

Creation date: Sept. 8, 2025, 6:18 p.m.

Reference frame: TEME

Reference center: EARTH

Epoch: Sept. 8, 2025, 11:46 a.m. UTC

TLE line 0: 0 CZ-6A DEB

TLE line 1: 1 55006U 22151UW 25251.49080470 .00001869 00000-0 98716-3 0 9992

TLE line 2: 2 55006 98.8177 253.5388 0044007 51.9126 308.6004 14.14547196144283

Live tracking on map

Real-time ground track for satellite CZ-6A DEB.

In-orbit conjunctions

A list of the most updated potential collisions computed for object CZ-6A DEB.

Target Orbit TCA Probability of collision Miss distance Type
CZ-6A DEB SSO 2025-04-10 12:54:17 0.0003075148 159.0 (m) DEBRIS
INTERCOSMOS 22 LEO 2025-03-30 09:24:53 0.0001151931 678.0 (m) PAYLOAD
CZ-6A DEB SSO 2024-11-11 03:32:13 0.0006273371 678.0 (m) DEBRIS

Associated space launch

Chinese satellite reported for atmospheric/ocean/environmental/spatial parameter research purposes, details TBD.

CZ-6A DEB was lifted into orbit during the mission ‘Long March 6A | Yunhai 3’, on board a Long March 6A space rocket.

The launch took place on Nov. 11, 2022, 10:52 p.m. from Launch Complex 9A.

For more information about the launch, click the button.

Launch to space Long March 6A | Yunhai 3
Long March 6A | Yunhai 3

Agency: N/A

Status: Launch Successful

Launch date: Nov. 11, 2022, 10:52 p.m. UTC

Rocket: Long March 6A

Launch pad: Launch Complex 9A

Location: Taiyuan Satellite Launch Center, People's Republic of China

...

Latest news about this satellite

There are no fresh news available about this satellite. Check back as we update our databases every day.


Newsletter sign-up

Weekly statistics, charts and insights to help you stay on top of the space industry.